Location: Star Hoppers Observatory
(42.7905°N, 83.6127°W)
Time: 09:32:17
(UTC-04:00)

Amateur Radio Satellites - All Passes

Search period start: 27 July 2016 09:02
Search period end: 28 July 2016 09:02
Location: Star Hoppers Observatory, 42.7905°N, 83.6127°W

Satellite Date Start Highest point End Downlink Frequencies (MHz)
Time Altitude Azimuth
DOVE 4 27 Jul 09:04:30 09:09:33 61° 286° (WNW) 09:14:45 437.250
Cosmos 2491 27 Jul 09:10:08 09:18:40 53° 75° (ENE) 09:27:10 435.465 / 435.565
GOMX 1 27 Jul 09:11:48 09:16:00 27° 292° (WNW) 09:20:23 467.674
CUTE 1.7 + AOD 2 27 Jul 09:12:38 09:16:36 39° 98° (E) 09:20:32 437.475
CINEMA 3 27 Jul 09:16:34 09:21:33 59° 100° (E) 09:26:28 145.822/145.860
LilacSat-2 27 Jul 09:26:36 09:26:39 10° 298° (WNW) 09:26:43 437.200
Cubesat XI-IV 27 Jul 09:37:16 09:40:39 17° 300° (WNW) 09:44:01 437.490
PRISM 27 Jul 09:39:51 09:43:52 58° 259° (WSW) 09:47:54 437.425
RS-15 27 Jul 09:44:40 09:55:48 49° 319° (NW) 10:07:35 29.354- 29.394
SO-50 27 Jul 09:49:13 09:54:00 53° 308° (NW) 09:58:45 436.795
ANTELSAT 27 Jul 09:49:48 09:52:45 17° 62° (ENE) 09:55:43 437.575/2403.000
SEEDS 27 Jul 09:51:44 09:55:55 78° 102° (ESE) 10:00:03 437.485
UWE-3 27 Jul 10:02:08 10:06:22 35° 96° (E) 10:10:29 435.000/436.395/437.385
FUNcube-1 27 Jul 10:02:19 10:05:45 21° 93° (E) 10:09:06 145.935
CUTE-I 27 Jul 10:02:48 10:03:59 11° 305° (NW) 10:05:11 437.470
ZACube-1 27 Jul 10:03:08 10:06:44 23° 93° (E) 10:10:15 437.345
COMPASS 1 27 Jul 10:03:32 10:07:41 74° 102° (ESE) 10:11:48 437.405
HO-68 27 Jul 10:13:47 10:20:59 72° 289° (WNW) 10:28:06 435.675
CUBEBUG 2 27 Jul 10:23:56 10:28:43 87° 103° (ESE) 10:33:19 437.445
M-CUBED/EXP-1 PRIME 27 Jul 10:26:57 10:28:43 12° 94° (E) 10:30:28 437.505
Cosmos 2504 27 Jul 10:28:16 10:34:42 23° 79° (E) 10:41:05 435.465 / 435.565
TIGRISAT 27 Jul 10:29:51 10:34:07 38° 70° (ENE) 10:38:28 435.000
AAUSAT CUBESAT 2 27 Jul 10:31:54 10:36:00 66° 285° (WNW) 10:40:04 437.432
CANX-2 27 Jul 10:35:30 10:38:49 23° 293° (WNW) 10:42:06 2200.000
YUBILEINY 27 Jul 10:38:56 10:47:39 73° 94° (E) 10:56:28 435.215
Oscar 11 27 Jul 10:44:08 10:48:26 64° 101° (E) 10:52:41 145.826/435.025
UNISAT 6 27 Jul 10:45:55 10:50:27 58° 73° (ENE) 10:55:05 437.425
CUTE 1.7 + AOD 2 27 Jul 10:49:12 10:52:10 19° 294° (WNW) 10:55:08 437.475
AUBIESAT-1 27 Jul 10:51:51 10:55:01 18° 97° (E) 10:58:09 437.475
POPSAT HIP 1 27 Jul 10:52:33 10:53:40 11° 60° (ENE) 10:54:48 437.405
DELFI C3 27 Jul 10:54:33 10:58:11 34° 97° (E) 11:01:47 145.870
CINEMA 3 27 Jul 10:54:47 10:58:12 19° 297° (WNW) 11:01:36 145.822/145.860
Cosmos 2491 27 Jul 11:07:31 11:15:09 35° 275° (W) 11:22:49 435.465 / 435.565
QB50P2 27 Jul 11:11:25 11:14:23 19° 65° (ENE) 11:17:22 145.880/145.840
POLYITAN 1 27 Jul 11:14:00 11:17:01 19° 65° (ENE) 11:20:03 437.675
HUMSAT D 27 Jul 11:17:08 11:20:52 30° 96° (E) 11:24:31 437.325/437.525
ANTELSAT 27 Jul 11:24:24 11:28:58 57° 260° (W) 11:33:37 437.575/2403.000
SEEDS 27 Jul 11:30:19 11:30:58 10° 299° (WNW) 11:31:39 437.485
SO-50 27 Jul 11:33:44 11:35:34 12° 329° (NNW) 11:37:23 436.795
FUNcube-1 27 Jul 11:37:58 11:42:07 37° 290° (WNW) 11:46:10 145.935
UWE-3 27 Jul 11:38:54 11:42:38 25° 294° (WNW) 11:46:18 435.000/436.395/437.385
ZACube-1 27 Jul 11:39:00 11:43:05 34° 291° (WNW) 11:47:05 437.345
COMPASS 1 27 Jul 11:41:40 11:42:38 11° 299° (WNW) 11:43:36 437.405
NANOSAT C BR1 27 Jul 11:55:48 11:59:52 48° 72° (ENE) 12:03:59 145.865
ESTCUBE 1 27 Jul 11:55:58 11:58:26 14° 91° (E) 12:00:55 437.505/2401.250
M-CUBED/EXP-1 PRIME 27 Jul 11:58:58 12:03:42 81° 290° (WNW) 12:08:24 437.505
DUCHIFAT 1 27 Jul 12:00:01 12:04:06 50° 72° (ENE) 12:08:14 145.980
RS-15 27 Jul 12:02:45 12:12:20 26° 351° (N) 12:22:09 29.354- 29.394
CUBEBUG 2 27 Jul 12:02:56 12:04:34 12° 301° (WNW) 12:06:11 437.445
HO-68 27 Jul 12:03:34 12:07:28 16° 309° (NW) 12:11:23 435.675
TIGRISAT 27 Jul 12:07:13 12:10:54 23° 267° (W) 12:14:38 435.000
VELOX 1 27 Jul 12:12:48 12:14:36 12° 90° (E) 12:16:24 145.980
CUBEBUG 1 27 Jul 12:13:09 12:15:37 15° 91° (E) 12:18:04 437.445
BUGSAT 1 27 Jul 12:14:38 12:18:16 31° 69° (ENE) 12:21:57 437.445
50 SAT 27 Jul 12:17:22 12:18:36 11° 91° (E) 12:19:49 437.505
QB50P1 27 Jul 12:18:06 12:22:21 90° 0° (N) 12:26:39 145.935-145.965
Cosmos 2504 27 Jul 12:18:11 12:27:04 81° 279° (W) 12:35:58 435.465 / 435.565
Oscar 11 27 Jul 12:22:01 12:24:02 13° 298° (WNW) 12:26:02 145.826/435.025
POPSAT HIP 1 27 Jul 12:24:34 12:28:48 78° 256° (WSW) 12:33:07 437.405
UNISAT 6 27 Jul 12:24:52 12:27:33 15° 270° (W) 12:30:14 437.425
AUBIESAT-1 27 Jul 12:25:11 12:29:42 53° 293° (WNW) 12:34:12 437.475
DELFI C3 27 Jul 12:30:01 12:32:47 19° 294° (WNW) 12:35:33 145.870
YUBILEINY 27 Jul 12:38:18 12:45:19 26° 295° (WNW) 12:52:27 435.215
QB50P2 27 Jul 12:45:51 12:49:53 41° 262° (W) 12:53:57 145.880/145.840
JAS-2 27 Jul 12:45:55 12:51:47 56° 72° (ENE) 12:57:06 435.910
POLYITAN 1 27 Jul 12:48:30 12:52:31 41° 262° (W) 12:56:36 437.675
HUMSAT D 27 Jul 12:52:59 12:56:21 23° 293° (WNW) 12:59:39 437.325/437.525
DX 1 27 Jul 12:55:22 12:59:00 25° 95° (E) 13:02:37 434.975-435.025
AISAT 27 Jul 12:55:45 12:59:54 37° 98° (E) 13:04:02 437.250
Oscar 19 27 Jul 13:08:32 13:12:39 25° 64° (ENE) 13:16:47 437.125/150
UKube-1 27 Jul 13:08:42 13:12:25 27° 96° (E) 13:16:07 .
ESTCUBE 1 27 Jul 13:31:12 13:35:35 56° 287° (WNW) 13:39:58 437.505/2401.250
NANOSAT C BR1 27 Jul 13:33:22 13:35:52 15° 269° (W) 13:38:23 145.865
M-CUBED/EXP-1 PRIME 27 Jul 13:35:54 13:37:27 12° 306° (NW) 13:38:59 437.505
DUCHIFAT 1 27 Jul 13:37:43 13:40:05 15° 269° (W) 13:42:28 145.980
SPROUT 27 Jul 13:41:21 13:45:36 53° 100° (E) 13:49:48 437.525
AO-85 27 Jul 13:44:35 13:48:35 22° 111° (ESE) 13:52:31 145.980
VELOX 1 27 Jul 13:47:04 13:51:30 65° 286° (WNW) 13:55:54 145.980
CUBEBUG 1 27 Jul 13:47:55 13:52:13 54° 287° (WNW) 13:56:31 437.445
50 SAT 27 Jul 13:49:02 13:52:29 45° 287° (WNW) 13:55:55 437.505
BUGSAT 1 27 Jul 13:50:31 13:53:41 22° 266° (W) 13:56:54 437.445
AO-7 27 Jul 14:05:17 14:10:12 17° 46° (NE) 14:15:07 29.400- 29.500
AIST 1 27 Jul 14:14:42 14:18:55 70° 96° (E) 14:23:10
Cosmos 2504 27 Jul 14:16:06 14:21:54 19° 300° (WNW) 14:27:43 435.465 / 435.565
RS-15 27 Jul 14:19:14 14:30:01 33° 26° (NNE) 14:40:48 29.354- 29.394
Gurwin Techsat 1B 27 Jul 14:28:57 14:34:11 61° 72° (ENE) 14:39:26 435.225
DX 1 27 Jul 14:31:20 14:35:11 31° 292° (WNW) 14:39:01 434.975-435.025
AISAT 27 Jul 14:32:42 14:36:09 22° 294° (WNW) 14:39:36 437.250
JAS-2 27 Jul 14:32:48 14:37:09 20° 266° (W) 14:41:13 435.910
TISAT 1 27 Jul 14:36:06 14:40:15 49° 100° (E) 14:44:22 437.305
ITAMSAT 1 27 Jul 14:42:54 14:47:22 29° 65° (ENE) 14:51:50 435.822/435.867
SWISSCUBE 27 Jul 14:43:51 14:46:03 13° 90° (E) 14:48:14 437.505
UKube-1 27 Jul 14:44:42 14:48:24 28° 292° (WNW) 14:52:05 .
Oscar 19 27 Jul 14:46:54 14:51:43 42° 261° (W) 14:56:36 437.125/150
GONETS M04 27 Jul 14:50:22 14:56:18 21° 78° (ENE) 15:02:14
BEESAT 27 Jul 15:04:12 15:07:37 19° 93° (E) 15:11:00 436.000
CUSAT 1 27 Jul 15:08:27 15:11:11 32° 78° (ENE) 15:14:28 437.405
SPROUT 27 Jul 15:18:33 15:21:06 16° 297° (WNW) 15:23:40 437.525
Cosmos 2499 27 Jul 15:19:32 15:26:11 25° 81° (E) 15:32:42 435.465 / 435.565
AO-85 27 Jul 15:23:27 15:28:44 59° 306° (NW) 15:33:48 145.980
ITUPSAT 1 27 Jul 15:26:51 15:31:07 31° 96° (E) 15:35:20 437.325
DANDE 27 Jul 15:34:40 15:36:18 15° 74° (ENE) 15:38:01 436.750
AO-7 27 Jul 15:53:12 16:01:28 68° 67° (ENE) 16:09:46 29.400- 29.500
AIST 1 27 Jul 15:56:08 15:57:03 11° 294° (WNW) 15:57:57
Gurwin Techsat 1B 27 Jul 16:11:03 16:14:33 18° 269° (W) 16:18:03 435.225
TISAT 1 27 Jul 16:12:52 16:15:30 16° 296° (WNW) 16:18:08 437.305
SWISSCUBE 27 Jul 16:19:34 16:24:19 68° 287° (WNW) 16:29:01 437.505
ITAMSAT 1 27 Jul 16:21:52 16:26:42 37° 263° (W) 16:31:33 435.822/435.867
RS-15 27 Jul 16:32:21 16:44:48 80° 55° (NE) 16:57:04 29.354- 29.394
SO-50 27 Jul 16:40:01 16:43:57 26° 43° (NE) 16:47:45 436.795
BEESAT 27 Jul 16:41:04 16:45:38 46° 290° (WNW) 16:50:10 436.000
KKS-1 27 Jul 16:42:36 16:46:11 23° 94° (E) 16:49:44 437.445
GONETS M04 27 Jul 16:43:18 16:51:59 82° 279° (W) 17:00:47
PHONESAT 2.4 27 Jul 17:00:14 17:01:01 11° 149° (SSE) 17:01:48 2401.200-2431.200
ITUPSAT 1 27 Jul 17:04:46 17:08:52 29° 293° (WNW) 17:12:56 437.325
HORYU 2 27 Jul 17:05:00 17:09:07 37° 69° (ENE) 17:13:17 437.375
AO-85 27 Jul 17:07:39 17:10:13 14° 326° (NNW) 17:12:43 145.980
Cosmos 2499 27 Jul 17:09:33 17:18:27 76° 279° (W) 17:27:08 435.465 / 435.565
DANDE 27 Jul 17:17:50 17:18:55 12° 267° (W) 17:20:02 436.750
MOZHAYETS 4 27 Jul 17:18:45 17:23:17 61° 100° (E) 17:27:47
STARS 27 Jul 17:20:09 17:24:01 28° 96° (E) 17:27:51 437.465
Cubesat XI-IV 27 Jul 17:40:56 17:44:30 18° 60° (ENE) 17:48:03 437.490
BRITE-PL 27 Jul 17:43:47 17:46:54 21° 66° (ENE) 17:50:02 437.365/2234.400
AO-7 27 Jul 17:47:56 17:54:48 28° 266° (W) 18:01:44 29.400- 29.500
CUTE-I 27 Jul 18:03:19 18:07:49 28° 65° (ENE) 18:12:19 437.470
KKS-1 27 Jul 18:18:43 18:22:49 35° 291° (WNW) 18:26:54 437.445
SO-50 27 Jul 18:20:12 18:24:37 45° 243° (WSW) 18:28:53 436.795
NOAA 15 27 Jul 18:21:30 18:26:33 52° 71° (ENE) 18:31:39 137.62
LilacSat-2 27 Jul 18:31:39 18:35:14 37° 72° (ENE) 18:38:51 437.200
PHONESAT 2.4 27 Jul 18:34:07 18:36:58 35° 165° (SSE) 18:39:50 2401.200-2431.200
DOVE 4 27 Jul 18:35:20 18:38:01 16° 62° (ENE) 18:40:48 437.250
CUBESAT XI-V 27 Jul 18:39:06 18:43:37 52° 99° (E) 18:48:07 437.345
NOAA 18 27 Jul 18:41:42 18:47:09 61° 71° (ENE) 18:52:38 137.9125
HORYU 2 27 Jul 18:42:17 18:45:47 22° 266° (W) 18:49:17 437.375
GOMX 1 27 Jul 18:42:58 18:46:51 39° 71° (ENE) 18:50:55 467.674
GONETS M04 27 Jul 18:44:47 18:50:19 18° 301° (WNW) 18:55:54
RS-15 27 Jul 18:45:59 18:56:06 32° 257° (WSW) 19:06:07 29.354- 29.394
BEESAT 3 27 Jul 18:52:44 18:56:11 30° 116° (ESE) 18:59:41 437.485
STARS 27 Jul 18:56:29 19:00:19 28° 292° (WNW) 19:04:06 437.465
MOZHAYETS 4 27 Jul 18:57:21 18:59:57 15° 298° (WNW) 19:02:34
HO-68 27 Jul 18:58:00 19:02:52 20° 54° (NE) 19:07:44 435.675
BEESAT 2 27 Jul 19:00:22 19:03:16 20° 112° (ESE) 19:06:12 435.950
Cosmos 2499 27 Jul 19:07:39 19:13:03 17° 300° (WNW) 19:18:23 435.465 / 435.565
PCSat 27 Jul 19:12:25 19:16:28 22° 106° (ESE) 19:20:31 145.827
Cubesat XI-IV 27 Jul 19:18:39 19:24:00 67° 258° (WSW) 19:29:23 437.490
BRITE-PL 27 Jul 19:21:30 19:25:14 32° 264° (W) 19:29:00 437.365/2234.400
CUTE-I 27 Jul 19:42:37 19:47:39 41° 262° (W) 19:52:44 437.470
CANX-2 27 Jul 19:52:54 19:56:29 26° 68° (ENE) 20:00:03 2200.000
NOAA 15 27 Jul 20:02:46 20:06:38 21° 267° (W) 20:10:29 137.62
CUTE 1.7 + AOD 2 27 Jul 20:05:59 20:09:46 31° 70° (ENE) 20:13:33 437.475
LilacSat-2 27 Jul 20:07:12 20:09:41 16° 268° (W) 20:12:11 437.200
PHONESAT 2.4 27 Jul 20:10:14 20:13:16 56° 181° (S) 20:16:17 2401.200-2431.200
DOVE 4 27 Jul 20:11:04 20:15:15 52° 261° (W) 20:19:40 437.250
CUBESAT XI-V 27 Jul 20:17:34 20:20:36 18° 296° (WNW) 20:23:37 437.345
CINEMA 3 27 Jul 20:18:41 20:23:07 55° 73° (ENE) 20:27:46 145.822/145.860
STRAND 1 27 Jul 20:19:23 20:24:02 34° 97° (E) 20:28:38 437.568
GOMX 1 27 Jul 20:22:20 20:25:11 18° 269° (W) 20:28:08 467.674
NOAA 18 27 Jul 20:24:24 20:28:13 19° 268° (W) 20:32:05 137.9125
BEESAT 3 27 Jul 20:30:31 20:33:52 26° 313° (NW) 20:37:15 437.485
O/OREOS (USA 219) 27 Jul 20:33:54 20:37:02 19° 101° (E) 20:40:12 437.305
BEESAT 2 27 Jul 20:37:07 20:40:51 38° 310° (NW) 20:44:36 435.950
HO-68 27 Jul 20:42:27 20:49:39 89° 253° (WSW) 20:56:54 435.675
SEEDS 27 Jul 20:43:48 20:47:57 58° 74° (ENE) 20:52:07 437.485
YUBILEINY 27 Jul 20:48:25 20:56:31 38° 70° (ENE) 21:04:33 435.215
PCSat 27 Jul 20:54:06 20:59:25 56° 304° (NW) 21:04:47 145.827
COMPASS 1 27 Jul 20:54:41 20:58:45 53° 74° (ENE) 21:02:50 437.405
FUNcube-1 27 Jul 20:58:37 21:01:55 20° 65° (ENE) 21:05:13 145.935
UWE-3 27 Jul 20:59:33 21:03:36 32° 69° (ENE) 21:07:44 435.000/436.395/437.385
ZACube-1 27 Jul 20:59:39 21:03:07 22° 65° (ENE) 21:06:36 437.345
AIST 2 27 Jul 21:05:04 21:08:08 21° 112° (ESE) 21:11:14 435.215
M-CUBED/EXP-1 PRIME 27 Jul 21:13:55 21:16:07 15° 56° (NE) 21:18:25 437.505
PRISM 27 Jul 21:21:24 21:24:07 17° 93° (E) 21:26:51 437.425
CUBEBUG 2 27 Jul 21:22:08 21:26:44 78° 75° (ENE) 21:31:28 437.445
AAUSAT CUBESAT 2 27 Jul 21:22:22 21:26:32 87° 72° (ENE) 21:30:42 437.432
CANX-2 27 Jul 21:28:33 21:32:15 28° 265° (W) 21:35:58 2200.000
AUBIESAT-1 27 Jul 21:38:34 21:41:35 22° 60° (ENE) 21:44:47 437.475
Oscar 11 27 Jul 21:39:17 21:43:32 53° 73° (ENE) 21:47:47 145.826/435.025
DELFI C3 27 Jul 21:41:28 21:44:38 23° 68° (ENE) 21:47:49 145.870
CUTE 1.7 + AOD 2 27 Jul 21:42:12 21:45:37 23° 266° (W) 21:49:04 437.475
PHONESAT 2.4 27 Jul 21:46:45 21:49:32 31° 198° (SSW) 21:52:18 2401.200-2431.200
CINEMA 3 27 Jul 21:57:56 22:00:39 16° 271° (W) 22:03:27 145.822/145.860
STRAND 1 27 Jul 21:58:42 22:03:07 30° 294° (WNW) 22:07:31 437.568
HUMSAT D 27 Jul 22:09:08 22:12:38 25° 68° (ENE) 22:16:10 437.325/437.525
Cosmos 2504 27 Jul 22:11:06 22:18:43 40° 71° (ENE) 22:25:47 435.465 / 435.565
O/OREOS (USA 219) 27 Jul 22:11:52 22:16:07 42° 298° (WNW) 22:20:23 437.305
Cosmos 2491 27 Jul 22:12:02 22:20:29 59° 91° (E) 22:28:58 435.465 / 435.565
ISS 27 Jul 22:12:30 22:15:43 63° 143° (SE) 22:18:57 145.825
AO-85 27 Jul 22:15:13 22:18:44 22° 41° (NE) 22:22:00 145.980
SEEDS 27 Jul 22:22:10 22:24:00 12° 270° (W) 22:25:50 437.485
COMPASS 1 27 Jul 22:32:35 22:34:38 13° 270° (W) 22:36:41 437.405
FUNcube-1 27 Jul 22:33:29 22:37:49 44° 262° (W) 22:42:13 145.935
HO-68 27 Jul 22:34:05 22:38:17 16° 271° (W) 22:42:31 435.675
ZACube-1 27 Jul 22:34:50 22:39:07 40° 262° (W) 22:43:28 437.345
UWE-3 27 Jul 22:36:09 22:40:02 27° 266° (W) 22:44:01 435.000/436.395/437.385
UNISAT 6 27 Jul 22:39:11 22:40:51 12° 88° (E) 22:42:32 437.425
PCSat 27 Jul 22:41:47 22:44:03 12° 326° (NW) 22:46:20 145.827
AIST 2 27 Jul 22:42:28 22:46:21 40° 310° (NW) 22:50:17 435.215
YUBILEINY 27 Jul 22:45:07 22:53:32 50° 271° (W) 23:01:52 435.215
M-CUBED/EXP-1 PRIME 27 Jul 22:46:27 22:50:08 53° 255° (WSW) 22:54:11 437.505
PRISM 27 Jul 22:55:45 22:59:36 39° 289° (WNW) 23:03:26 437.425
ESTCUBE 1 27 Jul 22:56:31 22:59:13 16° 63° (ENE) 23:01:57 437.505/2401.250
CUBEBUG 2 27 Jul 23:02:36 23:03:56 11° 273° (W) 23:05:17 437.445
CUBEBUG 1 27 Jul 23:10:30 23:12:47 14° 62° (ENE) 23:15:04 437.445
VELOX 1 27 Jul 23:11:15 23:13:18 13° 61° (ENE) 23:15:20 145.980
AUBIESAT-1 27 Jul 23:12:21 23:15:50 33° 259° (WSW) 23:19:35 437.475
ANTELSAT 27 Jul 23:15:44 23:19:46 28° 95° (E) 23:23:41 437.575/2403.000
DELFI C3 27 Jul 23:15:58 23:19:23 27° 264° (W) 23:22:49 145.870
Oscar 11 27 Jul 23:17:37 23:19:59 14° 269° (W) 23:22:21 145.826/435.025
HUMSAT D 27 Jul 23:44:19 23:48:08 30° 264° (W) 23:51:58 437.325/437.525
ISS 27 Jul 23:49:33 23:52:22 26° 341° (NNW) 23:55:10 145.825
DX 1 27 Jul 23:51:46 23:55:17 25° 66° (ENE) 23:58:48 434.975-435.025
AISAT 27 Jul 23:53:49 23:57:49 36° 70° (ENE) 00:01:52 437.250
AO-85 27 Jul 23:55:15 23:59:29 48° 242° (WSW) 00:03:22 145.980
TIGRISAT 27 Jul 23:56:49 00:01:29 73° 103° (ESE) 00:06:00 435.000
QB50P1 28 Jul 00:03:34 00:05:49 14° 91° (E) 00:08:05 145.935-145.965
UKube-1 28 Jul 00:04:04 00:07:39 26° 67° (ENE) 00:11:15 .
Cosmos 2504 28 Jul 00:04:36 00:12:06 42° 273° (W) 00:19:06 435.465 / 435.565
POPSAT HIP 1 28 Jul 00:09:43 00:12:25 16° 92° (E) 00:15:06 437.405
Cosmos 2491 28 Jul 00:10:13 00:17:47 32° 292° (WNW) 00:25:24 435.465 / 435.565
UNISAT 6 28 Jul 00:13:27 00:18:06 72° 285° (WNW) 00:22:36 437.425
AIST 1 28 Jul 00:21:29 00:24:37 19° 71° (ENE) 00:27:45
50 SAT 28 Jul 00:26:44 00:30:24 84° 76° (ENE) 00:34:05 437.505
QB50P2 28 Jul 00:30:01 00:33:46 28° 96° (E) 00:37:28 145.880/145.840
ESTCUBE 1 28 Jul 00:31:11 00:35:36 56° 260° (W) 00:40:01 437.505/2401.250
POLYITAN 1 28 Jul 00:32:38 00:36:25 29° 96° (E) 00:40:09 437.675
SPROUT 28 Jul 00:35:28 00:39:31 44° 72° (ENE) 00:43:37 437.525
CUBEBUG 1 28 Jul 00:44:20 00:48:35 59° 260° (W) 00:52:51 437.445
VELOX 1 28 Jul 00:44:50 00:49:12 67° 258° (WSW) 00:53:36 145.980
ANTELSAT 28 Jul 00:52:24 00:56:25 30° 292° (WNW) 01:00:21 437.575/2403.000
GONETS M04 28 Jul 01:00:30 01:01:51 10° 51° (NE) 01:03:12
NANOSAT C BR1 28 Jul 01:14:45 01:19:04 81° 104° (ESE) 01:23:19 145.865
DUCHIFAT 1 28 Jul 01:18:41 01:22:58 84° 100° (E) 01:27:14 145.980
ISS 28 Jul 01:27:20 01:29:34 17° 1° (N) 01:31:49 145.825
DX 1 28 Jul 01:27:29 01:31:19 31° 263° (W) 01:35:12 434.975-435.025
TISAT 1 28 Jul 01:28:21 01:32:16 40° 71° (ENE) 01:36:14 437.305
BUGSAT 1 28 Jul 01:30:15 01:34:24 49° 100° (E) 01:38:31 437.445
AISAT 28 Jul 01:31:03 01:34:24 21° 266° (W) 01:37:47 437.250
TIGRISAT 28 Jul 01:35:21 01:37:31 13° 300° (WNW) 01:39:40 435.000
QB50P1 28 Jul 01:37:44 01:41:56 53° 287° (WNW) 01:46:05 145.935-145.965
JAS-2 28 Jul 01:38:04 01:43:07 43° 99° (E) 01:48:35 435.910
UKube-1 28 Jul 01:39:52 01:43:36 29° 264° (W) 01:47:22 .
POPSAT HIP 1 28 Jul 01:44:19 01:48:26 46° 288° (WNW) 01:52:32 437.405
SWISSCUBE 28 Jul 01:50:45 01:53:59 18° 62° (ENE) 01:57:13 437.505
AIST 1 28 Jul 01:58:20 02:02:21 38° 268° (W) 02:06:23
QB50P2 28 Jul 02:05:53 02:09:28 26° 292° (WNW) 02:13:01 145.880/145.840
POLYITAN 1 28 Jul 02:08:33 02:12:07 26° 293° (WNW) 02:15:39 437.675
BEESAT 28 Jul 02:11:13 02:15:08 25° 65° (ENE) 02:19:02 436.000
SPROUT 28 Jul 02:12:54 02:15:41 17° 268° (W) 02:18:29 437.525
ITUPSAT 1 28 Jul 02:34:10 02:38:39 41° 70° (ENE) 02:43:09 437.325
Gurwin Techsat 1B 28 Jul 02:45:01 02:49:09 23° 93° (E) 02:53:16 435.225
GONETS M04 28 Jul 02:52:34 03:01:09 53° 75° (ENE) 03:09:43
NANOSAT C BR1 28 Jul 02:53:13 02:54:08 11° 300° (WNW) 02:55:03 145.865
Oscar 19 28 Jul 02:57:07 03:02:16 64° 102° (ESE) 03:07:24 437.125/150
DUCHIFAT 1 28 Jul 02:57:25 02:58:00 10° 300° (WNW) 02:58:34 145.980
Cosmos 2499 28 Jul 03:01:05 03:08:27 41° 72° (ENE) 03:15:16 435.465 / 435.565
ISS 28 Jul 03:03:48 03:06:45 30° 22° (NNE) 03:09:40 145.825
TISAT 1 28 Jul 03:05:13 03:08:06 18° 267° (W) 03:11:00 437.305
BUGSAT 1 28 Jul 03:06:43 03:09:23 16° 296° (WNW) 03:12:02 437.445
BEESAT 3 28 Jul 03:08:59 03:12:22 26° 46° (NE) 03:15:44 437.485
BEESAT 2 28 Jul 03:16:59 03:19:57 19° 43° (NE) 03:22:52 435.950
JAS-2 28 Jul 03:23:46 03:28:03 26° 295° (WNW) 03:32:36 435.910
SWISSCUBE 28 Jul 03:26:41 03:31:21 54° 259° (W) 03:36:04 437.505
KKS-1 28 Jul 03:41:31 03:45:04 24° 66° (ENE) 03:48:38 437.445
BEESAT 28 Jul 03:48:19 03:52:43 37° 262° (W) 03:57:10 436.000
AO-7 28 Jul 03:55:25 04:01:07 20° 91° (E) 04:06:44 29.400- 29.500
PCSat 28 Jul 03:58:17 04:02:42 25° 45° (NE) 04:07:06 145.827
ITUPSAT 1 28 Jul 04:12:52 04:16:37 23° 266° (W) 04:20:24 437.325
CUSAT 1 28 Jul 04:12:52 04:16:40 38° 98° (E) 04:19:41 437.405
STARS 28 Jul 04:17:34 04:21:18 28° 67° (ENE) 04:25:06 437.465
MOZHAYETS 4 28 Jul 04:21:01 04:25:35 63° 74° (ENE) 04:30:10
Gurwin Techsat 1B 28 Jul 04:24:14 04:29:20 48° 290° (WNW) 04:34:25 435.225
ITAMSAT 1 28 Jul 04:33:19 04:38:32 73° 103° (ESE) 04:43:41 435.822/435.867
Oscar 19 28 Jul 04:37:40 04:41:04 18° 299° (WNW) 04:44:30 437.125/150
ISS 28 Jul 04:40:08 04:43:16 45° 220° (SW) 04:46:24 145.825
DANDE 28 Jul 04:42:32 04:47:33 36° 97° (E) 04:51:26 436.750
BEESAT 3 28 Jul 04:46:31 04:50:03 31° 244° (WSW) 04:53:34 437.485
GONETS M04 28 Jul 04:49:55 04:57:37 36° 276° (W) 05:05:19
BEESAT 2 28 Jul 04:54:09 04:58:02 49° 242° (WSW) 05:01:53 435.950
Cosmos 2499 28 Jul 04:54:24 05:01:29 39° 274° (W) 05:08:07 435.465 / 435.565
KKS-1 28 Jul 05:17:25 05:21:27 34° 263° (W) 05:25:32 437.445
AIST 2 28 Jul 05:24:54 05:28:09 21° 44° (NE) 05:31:23 435.215
PCSat 28 Jul 05:41:10 05:46:30 59° 245° (WSW) 05:51:48 145.827
CUBESAT XI-V 28 Jul 05:42:57 05:47:27 55° 73° (ENE) 05:51:57 437.345
AO-7 28 Jul 05:46:26 05:54:52 88° 290° (WNW) 06:03:12 29.400- 29.500
STARS 28 Jul 05:53:50 05:57:36 28° 264° (W) 06:01:25 437.465
CUSAT 1 28 Jul 05:57:57 05:58:36 10° 287° (WNW) 05:59:14 437.405
MOZHAYETS 4 28 Jul 06:00:51 06:03:10 14° 270° (W) 06:05:30
ITAMSAT 1 28 Jul 06:14:18 06:17:23 16° 301° (WNW) 06:20:27 435.822/435.867
DANDE 28 Jul 06:26:17 06:30:14 21° 285° (WNW) 06:33:29 436.750
HORYU 2 28 Jul 06:31:05 06:35:33 66° 102° (ESE) 06:39:59 437.375
NOAA 15 28 Jul 06:36:45 06:40:16 18° 92° (E) 06:43:47 137.62
O/OREOS (USA 219) 28 Jul 06:41:33 06:45:53 43° 62° (ENE) 06:50:14 437.305
GOMX 1 28 Jul 06:44:16 06:46:53 14° 90° (E) 06:49:33 467.674
RS-15 28 Jul 06:56:35 07:07:12 47° 109° (ESE) 07:18:20 29.354- 29.394
AIST 2 28 Jul 07:02:51 07:06:52 47° 242° (WSW) 07:10:52 435.215
NOAA 18 28 Jul 07:03:37 07:08:02 24° 94° (E) 07:12:24 137.9125
CUBESAT XI-V 28 Jul 07:22:28 07:25:10 15° 269° (W) 07:27:53 437.345
BRITE-PL 28 Jul 07:23:21 07:28:11 66° 101° (E) 07:33:24 437.365/2234.400
Cubesat XI-IV 28 Jul 07:35:09 07:40:19 46° 99° (E) 07:45:25 437.490
STRAND 1 28 Jul 07:35:49 07:40:49 54° 71° (ENE) 07:45:50 437.568
LilacSat-2 28 Jul 07:38:10 07:41:56 50° 99° (E) 07:45:41 437.200
AO-7 28 Jul 07:40:33 07:46:33 23° 310° (NW) 07:52:31 29.400- 29.500
CUTE-I 28 Jul 07:58:23 08:03:45 75° 104° (ESE) 08:09:03 437.470
DOVE 4 28 Jul 08:08:13 08:13:08 42° 97° (E) 08:18:08 437.250
HORYU 2 28 Jul 08:09:17 08:11:35 14° 299° (WNW) 08:13:51 437.375
HO-68 28 Jul 08:11:14 08:15:28 16° 89° (E) 08:19:39 435.675
PRISM 28 Jul 08:12:17 08:14:35 15° 63° (ENE) 08:16:53 437.425
CINEMA 3 28 Jul 08:13:55 08:16:40 15° 89° (E) 08:19:23 145.822/145.860
NOAA 15 28 Jul 08:15:15 08:20:26 60° 288° (WNW) 08:25:36 137.62
GOMX 1 28 Jul 08:20:18 08:25:23 76° 285° (WNW) 08:30:44 467.674
Cosmos 2491 28 Jul 08:21:33 08:29:03 30° 67° (ENE) 08:36:30 435.465 / 435.565
O/OREOS (USA 219) 28 Jul 08:21:44 08:24:57 19° 259° (W) 08:28:11 437.305
SO-50 28 Jul 08:34:21 08:39:02 49° 118° (ESE) 08:43:43 436.795
NOAA 18 28 Jul 08:43:35 08:48:55 49° 291° (WNW) 08:54:12 137.9125
